This demonstration page uses our WeatherBlox Daily Observations layout. Learn more.

Hourly Observations for April 9, 2015

Temp ( °F °C ) Dew Point ( °F °C ) Humidity (%) Winds ( mph kmh ) Pressure ( in mb ) Visibility ( mi km ) Precip ( " mm )
12:15 am 00:15 Cloudy with Light Drizzle 43 5.9 41 5.2 95 95 NNE 15 24 29.74 1007 4 6.43736 0 0
12:35 am 00:35 Cloudy with Mist and Fog 42 5.8 41 5.2 96 96 NNE 16 26 29.74 1007 3 4.82802 0 0
12:55 am 00:55 Cloudy with Light Rain 42 5.6 41 5 96 96 NNE 15 24 29.74 1007 3 4.82802 0 0
1:15 am 01:15 Cloudy with Mist and Fog 42 5.5 41 5 97 97 NNE 15 24 29.74 1007 3 4.82802 0 0
1:35 am 01:35 Cloudy with Light Rain 42 5.5 41 4.8 95 95 NNE 14 22 29.74 1007 3 4.82802 0.01 0.254
1:55 am 01:55 Cloudy with Light Drizzle 42 5.3 40 4.7 96 96 N 13 20 29.74 1007 5 8.0467 0.01 0.254
2:15 am 02:15 Cloudy with Light Rain 42 5.3 40 4.7 96 96 N 13 20 29.74 1007 5 8.0467 0 0
2:35 am 02:35 Cloudy with Mist and Fog 42 5.3 40 4.7 96 96 N 12 19 29.74 1007 4 6.43736 0 0
2:55 am 02:55 Cloudy 42 5.3 40 4.7 96 96 N 13 20 29.74 1007 10 16.0934 0 0
3:15 am 03:15 Cloudy with Light Rain 42 5.3 40 4.6 95 95 N 13 20 29.74 1007 10 16.0934 0 0
3:35 am 03:35 Cloudy 41 5.2 40 4.5 95 95 NNE 13 20 29.71 1006 10 16.0934 0 0
3:55 am 03:55 Cloudy 41 5.2 40 4.5 95 95 N 13 20 29.71 1006 10 16.0934 0 0
4:15 am 04:15 Cloudy 41 5.1 40 4.2 94 94 N 16 26 29.71 1006 10 16.0934 0 0
4:35 am 04:35 Cloudy 41 5 39 4.1 94 94 N 15 24 29.74 1007 7 11.26538 0 0
4:55 am 04:55 Cloudy with Mist and Fog 41 5 39 4 93 93 N 15 24 29.74 1007 5 8.0467 0 0
5:15 am 05:15 Cloudy 41 4.8 39 4 95 95 NNW 13 20 29.77 1008 7 11.26538 0 0
5:35 am 05:35 Cloudy 40 4.7 39 3.8 94 94 N 15 24 29.74 1007 10 16.0934 0 0
5:55 am 05:55 Cloudy 40 4.7 39 3.7 93 93 NNW 15 24 29.77 1008 7 11.26538 0 0
6:15 am 06:15 Cloudy 40 4.7 39 3.7 93 93 NNW 14 22 29.77 1008 7 11.26538 0 0
6:35 am 06:35 Cloudy 40 4.7 39 3.7 93 93 NNW 14 22 29.77 1008 10 16.0934 0 0
6:55 am 06:55 Cloudy 40 4.6 38 3.5 93 93 NNW 15 24 29.77 1008 10 16.0934 0 0
7:15 am 07:15 Cloudy 40 4.7 38 3.6 93 93 NNW 15 24 29.8 1009 10 16.0934 0 0
7:35 am 07:35 Cloudy 40 4.6 38 3.5 93 93 NNW 13 20 29.8 1009 10 16.0934 0 0
7:55 am 07:55 Cloudy with Mist and Fog 40 4.6 38 3.5 93 93 NNW 15 24 29.8 1009 4 6.43736 0 0
8:15 am 08:15 Cloudy with Light Drizzle 40 4.6 38 3.6 93 93 NNW 12 19 29.83 1010 2 3.21868 0 0
8:35 am 08:35 Cloudy with Light Drizzle 40 4.5 38 3.6 94 94 NNW 15 24 29.83 1010 1.75 2.816345 0 0
8:55 am 08:55 Cloudy with Light Drizzle 40 4.6 39 3.7 94 94 NW 15 24 29.83 1010 2 3.21868 0 0
9:15 am 09:15 Cloudy with Light Rain 40 4.6 39 3.8 95 95 NW 17 28 29.83 1010 2 3.21868 0 0
9:35 am 09:35 Cloudy with Light Rain 40 4.4 38 3.4 93 93 NW 18 30 29.83 1010 2.5 4.02335 0 0
9:55 am 09:55 Cloudy with Light Rain 39 4.1 37 2.9 92 92 NW 23 37 29.83 1010 3 4.82802 0.01 0.254
10:15 am 10:15 Cloudy with Mist and Fog 38 3.3 36 2.1 92 92 NW 25 41 29.88 1012 4 6.43736 0 0
10:35 am 10:35 Cloudy 38 3.1 35 1.7 91 91 NNW 25 41 29.88 1012 10 16.0934 0 0
10:55 am 10:55 Cloudy 38 3.2 35 1.7 90 90 NNW 23 37 29.88 1012 10 16.0934 0 0
11:15 am 11:15 Cloudy 37 3 35 1.6 91 91 NNW 22 35 29.91 1013 10 16.0934 0 0
11:35 am 11:35 Cloudy with Light Rain 37 2.8 35 1.5 91 91 NW 17 28 29.94 1014 10 16.0934 0 0
11:55 am 11:55 Cloudy with Light Rain 35 1.9 33 0.7 92 92 NW 21 33 29.94 1014 7 11.26538 0 0
12:15 pm 12:15 Cloudy with Light Rain 36 2 34 1 93 93 NW 22 35 29.97 1015 4 6.43736 0 0
12:35 pm 12:35 Cloudy with Light Rain 36 2.2 34 1.3 94 94 NW 24 39 29.97 1015 4 6.43736 0.01 0.254
12:55 pm 12:55 Cloudy with Light Rain 37 2.5 35 1.5 93 93 NW 29 46 29.97 1015 5 8.0467 0.02 0.508
1:15 pm 13:15 Cloudy with Light Drizzle 37 2.6 35 1.4 92 92 NW 30 48 30 1016 5 8.0467 0 0
1:35 pm 13:35 Cloudy with Light Rain 37 3 34 1.3 89 89 NW 29 46 30 1016 7 11.26538 0 0
1:55 pm 13:55 Cloudy with Light Rain 37 2.5 34 1.2 91 91 NW 29 46 30.03 1017 4 6.43736 0.01 0.254
2:15 pm 14:15 Cloudy with Light Rain 35 1.8 33 0.7 93 93 NW 25 41 30.06 1018 2.5 4.02335 0.01 0.254
2:35 pm 14:35 Cloudy with Light Snow 35 1.4 33 0.5 94 94 NW 18 30 30.06 1018 1.75 2.816345 0.03 0.762
2:55 pm 14:55 Cloudy with Light Rain 36 2.3 35 1.4 94 94 NNW 25 41 30.09 1019 5 8.0467 0.04 1.016
3:15 pm 15:15 Cloudy with Light Rain 39 3.8 37 2.5 91 91 NNW 28 44 30.06 1018 10 16.0934 0 0
3:35 pm 15:35 Mostly Cloudy 40 4.7 37 2.6 86 86 NNW 29 46 30.06 1018 10 16.0934 0 0
3:55 pm 15:55 Mostly Cloudy 42 5.4 37 2.7 83 83 NNW 23 37 30.06 1018 10 16.0934 0 0
4:15 pm 16:15 Mostly Cloudy 41 5.2 35 1.7 78 78 NNW 20 31 30.09 1019 10 16.0934 0 0
4:35 pm 16:35 Cloudy 42 5.5 36 2.1 79 79 NNW 22 35 30.09 1019 10 16.0934 0 0
4:55 pm 16:55 Cloudy 42 5.6 35 1.8 77 77 NNW 21 33 30.09 1019 10 16.0934 0 0
5:15 pm 17:15 Mostly Cloudy 44 6.5 36 2 73 73 NNW 22 35 30.06 1018 10 16.0934 0 0
5:35 pm 17:35 Mostly Cloudy 44 6.7 35 1.9 72 72 NNW 21 33 30.06 1018 10 16.0934 0 0
5:55 pm 17:55 Partly Cloudy 45 7.1 36 2.1 71 71 NW 22 35 30.06 1018 10 16.0934 0 0
6:15 pm 18:15 Partly Cloudy 44 6.8 36 2.1 72 72 NW 22 35 30.06 1018 10 16.0934 0 0
6:35 pm 18:35 Partly Cloudy 44 6.9 36 2.3 73 73 NW 20 31 30.09 1019 10 16.0934 0 0
6:55 pm 18:55 Sunny 44 6.7 35 1.5 70 70 NW 21 33 30.09 1019 10 16.0934 0 0
7:15 pm 19:15 Sunny 44 6.6 35 1.5 70 70 NW 17 28 30.09 1019 10 16.0934 0 0
7:35 pm 19:35 Sunny 44 6.4 35 1.8 73 73 NW 14 22 30.12 1020 10 16.0934 0 0
7:55 pm 19:55 Sunny 43 6 35 1.5 73 73 WNW 9 15 30.15 1021 10 16.0934 0 0
8:15 pm 20:15 Clear 42 5.5 34 1.3 75 75 WNW 7 11 30.15 1021 10 16.0934 0 0
8:35 pm 20:35 Clear 40 4.5 34 1.1 79 79 W 9 15 30.15 1021 10 16.0934 0 0
8:55 pm 20:55 Clear 39 3.8 33 0.7 80 80 W 9 15 30.15 1021 10 16.0934 0 0
9:15 pm 21:15 Clear 39 3.7 33 0.5 80 80 W 9 15 30.18 1022 10 16.0934 0 0
9:35 pm 21:35 Clear 38 3.4 32 0.1 79 79 W 10 17 30.21 1023 10 16.0934 0 0
9:55 pm 21:55 Clear 38 3.6 32 0 78 78 W 10 17 30.18 1022 10 16.0934 0 0
10:15 pm 22:15 Clear 38 3.3 31 -0.3 78 78 W 10 17 30.21 1023 10 16.0934 0 0
10:35 pm 22:35 Clear 37 2.8 31 -0.5 79 79 W 10 17 30.21 1023 10 16.0934 0 0
10:55 pm 22:55 Clear 36 2.4 31 -0.7 80 80 W 9 15 30.21 1023 10 16.0934 0 0
11:15 pm 23:15 Clear 37 2.7 31 -0.6 79 79 W 13 20 30.21 1023 10 16.0934 0 0
11:35 pm 23:35 Clear 37 2.5 30 -1 78 78 W 10 17 30.21 1023 10 16.0934 0 0
11:55 pm 23:55 Clear 37 2.5 30 -1 78 78 W 12 19 30.21 1023 10 16.0934 0 0

Powered by AerisWeather